sat.trackr.live / text

‹ back to catalog

SITRO-AIS 44

NORAD 61748 · 2024-199P

PAYLOAD ACTIVE UNKNOWN

§ Identity

Operator
Country
CIS
Launch date
2024-11-04
Launch site
VOSTO
Launch vehicle
Mass (kg)
RCS (m²)

External: N2YO · Heavens-Above · Gunter

§ Orbital elements

Epoch: 2026-05-25T02:43:52.923072Z

Period
92.04 min
Inclination
97.2927°
Eccentricity
0.0004469
Mean motion
15.64531209 rev/d
Perigee alt
371.6 km
Apogee alt
377.6 km
Semi-major
6,752.7 km
B*
7.0108e-4
RAAN
23.4081°
Arg perigee
29.1486°
Mean anomaly
331.0022°
Rev number
13,417

§ Raw data

SITRO-AIS 441 61748U 24199P   26145.11380698  .00067826  00000+0  70108-3 0  99922 61748  97.2927  23.4081 0004469  29.1486 331.0022 15.64531209134178

JSON: /api/v1/satellites/61748 · /tle

For live sub-satellite position, see the globe view (requires WebGL).

§ Visibility from observer

Set your observer location to see the next 7 days of passes ≥ 10°. The values pass through the URL so the page stays shareable.

No JS? Fill the form by hand. The geolocation button needs JavaScript.

§ Radio — SatNOGS DB

ModeDescriptionDownlinkUplink
GMSK USP Mode U - GMSK2k4 - USP 401.165 MHz

1 transmitter · refreshed weekly from db.satnogs.org